Home > Weather > Ponta Delgada > Past weeks

Flag for Portugal Weather for the Past 2 Weeks in Ponta Delgada, Azores, Portugal

Now
61 °F

Broken clouds.


Feels Like: 61 °F
Forecast: 59 / 64 °F
Wind: 16 mph from West

Location: Ponta Delgada / Nordela Acores

Current Time: Feb 13, 2016 at 8:53:02 AM

Latest Report: Feb 13, 2016 at 8:30 AM


Visibility: 5 mi

Pressure: 30.24 "Hg

Humidity: 94%

Dew point: 59 °F

Location of Ponta DelgadaLocation

Historic Weather in Ponta Delgada — Graph

°F

Ponta Delgada Temperature Yesterday

Maximum temperature yesterday: 63 °F (at 1:00 PM)
Minimum temperature yesterday: 59 °F (at 12:00 AM)
Average temperature yesterday: 61 °F

High & Low Weather Summary for the Past Weeks

 TemperatureHumidityPressure
High64 °F (Feb 1, 3:00 PM)100% (Jan 31, 10:00 PM)30.72 "Hg (Jan 31, 10:00 PM)
Low52 °F (Jan 29, 7:00 AM)59% (Jan 29, 2:00 PM)30.21 "Hg (Feb 6, 5:00 AM)
Average59 °F86%30.43 "Hg
* Reported Jan 29 7:00 AM — Feb 13 7:00 AM, Ponta Delgada, Weather by CustomWeather, © 2016

Note: Actual official high and low records may vary slightly from our data, if they occured in-between our weather recording intervals... More about our weather records

Advertising

Ponta Delgada Weather History for the Previous 24 Hours

 ConditionsComfort  
Time TempWeatherWind HumidityBarometerVisibility
7:00 AM
Sat, Feb 13
61 °FPassing clouds.14 mph94%30.24 "Hg5 mi
6:30 AM61 °FPassing clouds.13 mph94%30.24 "Hg5 mi
6:00 AM61 °FPassing clouds.15 mph94%30.24 "Hg6 mi
5:30 AM61 °FPartly cloudy.17 mph94%30.24 "HgN/A
5:00 AM61 °FPassing clouds.16 mph94%30.24 "HgN/A
4:30 AM61 °FPassing clouds.17 mph94%30.21 "HgN/A
4:00 AM61 °FPassing clouds.16 mph94%30.24 "HgN/A
3:30 AM61 °FPassing clouds.15 mph94%30.24 "HgN/A
3:00 AM61 °FPassing clouds.16 mph94%30.24 "HgN/A
2:30 AM61 °FPartly cloudy.15 mph94%30.24 "HgN/A
2:00 AM61 °FPassing clouds.14 mph94%30.24 "HgN/A
1:30 AM61 °FPassing clouds.20 mph88%30.24 "HgN/A
1:00 AM61 °FPartly cloudy.20 mph88%30.24 "HgN/A
12:00 AM61 °FPartly cloudy.13 mph88%30.27 "HgN/A
11:30 PM
Fri, Feb 12
61 °FPassing clouds.17 mph88%30.27 "HgN/A
11:00 PM61 °FPassing clouds.14 mph88%30.27 "HgN/A
10:30 PM61 °FPassing clouds.17 mph88%30.27 "HgN/A
10:00 PM61 °FPassing clouds.18 mph88%30.27 "HgN/A
9:30 PM61 °FPassing clouds.18 mph94%30.27 "HgN/A
9:00 PM61 °FPassing clouds.16 mph94%30.27 "HgN/A
8:30 PM61 °FPassing clouds.13 mph94%30.27 "HgN/A
7:30 PM61 °FPartly cloudy.9 mph94%30.27 "HgN/A
7:00 PM61 °FPassing clouds.15 mph94%30.27 "HgN/A
6:30 PM61 °FPassing clouds.9 mph88%30.27 "HgN/A
6:00 PM61 °FPartly sunny.10 mph88%30.27 "HgN/A
5:30 PM61 °FScattered clouds.15 mph94%30.24 "HgN/A
5:00 PM61 °FBroken clouds.14 mph94%30.24 "HgN/A
4:30 PM61 °FBroken clouds.14 mph94%30.27 "HgN/A
4:00 PM61 °FPartly sunny.17 mph94%30.24 "HgN/A
3:30 PM63 °FPartly sunny.16 mph88%30.24 "HgN/A
3:00 PM63 °FPartly sunny.15 mph88%30.24 "HgN/A
2:30 PM63 °FPartly sunny.17 mph88%30.24 "HgN/A
2:00 PM63 °FPartly sunny.17 mph88%30.27 "HgN/A
1:00 PM63 °FPartly sunny.21 mph88%30.27 "HgN/A
12:30 PM61 °FPartly sunny.18 mph88%30.27 "HgN/A
12:00 PM61 °FPartly sunny.20 mph94%30.27 "HgN/A
11:30 AM61 °FPartly sunny.20 mph94%30.30 "HgN/A
11:00 AM61 °FPartly sunny.21 mph94%30.30 "HgN/A
10:30 AM61 °FPartly sunny.20 mph94%30.30 "HgN/A
10:00 AM61 °FPartly sunny.15 mph94%30.30 "HgN/A
9:30 AM61 °FPartly sunny.20 mph88%30.30 "HgN/A
9:00 AM61 °FPartly sunny.20 mph88%30.30 "HgN/A
8:30 AM61 °FPartly sunny.18 mph94%30.30 "HgN/A
8:00 AM61 °FPartly sunny.21 mph94%30.27 "HgN/A
Weather by CustomWeather, © 2016

See weather overviewHow to use our weather pages